Location: Cerezo de Arriba
(41.2389°N, 3.5585°W)
Time: 04:50:24
(UTC+00:00)

Cosmos 1125 Rocket - Pass Details

Date: 19 May 2025
Orbit: 753 x 776 km, 74.0° (Epoch: 23 June)

Event Time Altitude Azimuth Distance (km) Brightness Sun altitude
Rises 21:03:52 0° 345° (NNW) 3,265 7.9 -15.0°
Reaches altitude 10° 21:06:20 10° 351° (N) 2,333 6.8 -15.4°
Maximum altitude 21:11:29 50° 66° (ENE) 981 3.9 -16.0°
Enters shadow 21:14:07 27° 129° (SE) 1,459 4.4 -16.4°
